• In Deutschland
  • Länderverzeichnis
  • Für 7 Tage
  • Wassertemperatur
  • Satellitenkarten
  • Wetterkarte
  • Widgets
  • user-avatar
    Anmelden

    Stündliche Wetter Utena

    Heute, 18 Juli, Mittwoch

    Zeit Temperatur Niederschläge Wind Luftdruck Luftfeuchtigkeit
    00:00 +20°C° 0 mm 3 m/S 746 mmHg 90%
    01:00 +20°C° 0 mm 3 m/S 746 mmHg 91%
    02:00 +19°C° 0 mm 3 m/S 745 mmHg 92%
    03:00 +19°C° 0 mm 3 m/S 746 mmHg 92%
    04:00 +19°C° 0 mm 3 m/S 746 mmHg 92%
    05:00 +19°C° 0 mm 3 m/S 746 mmHg 93%
    06:00 +20°C° 0 mm 3 m/S 746 mmHg 88%
    07:00 +21°C° 0 mm 3 m/S 746 mmHg 83%
    08:00 +23°C° 0 mm 4 m/S 746 mmHg 78%
    09:00 +25°C° 0 mm 4 m/S 746 mmHg 73%
    10:00 +26°C° 0 mm 4 m/S 746 mmHg 68%
    11:00 +28°C° 0 mm 5 m/S 746 mmHg 63%
    12:00 +28°C° 0,1 mm 5 m/S 746 mmHg 62%
    13:00 +29°C° 0,1 mm 5 m/S 745 mmHg 60%
    14:00 +29°C° 0,1 mm 5 m/S 745 mmHg 59%
    15:00 +29°C° 0,1 mm 4 m/S 745 mmHg 60%
    16:00 +28°C° 0,1 mm 4 m/S 745 mmHg 61%
    17:00 +28°C° 0,1 mm 4 m/S 745 mmHg 62%
    18:00 +27°C° 0,1 mm 3 m/S 745 mmHg 68%
    19:00 +25°C° 0,1 mm 3 m/S 745 mmHg 73%
    20:00 +23°C° 0,1 mm 2 m/S 745 mmHg 79%
    21:00 +21°C° 0 mm 2 m/S 745 mmHg 82%
    22:00 +20°C° 0 mm 2 m/S 745 mmHg 84%
    23:00 +19°C° 0 mm 2 m/S 746 mmHg 87%

    Morgen, 19 Juli, Donnerstag

    Zeit Temperatur Niederschläge Wind Luftdruck Luftfeuchtigkeit
    00:00 +19°C° 0 mm 2 m/S 746 mmHg 89%
    01:00 +18°C° 0 mm 2 m/S 746 mmHg 91%
    02:00 +18°C° 0 mm 2 m/S 746 mmHg 92%
    03:00 +18°C° 0,1 mm 2 m/S 746 mmHg 93%
    04:00 +18°C° 0,1 mm 2 m/S 746 mmHg 93%
    05:00 +18°C° 0,1 mm 2 m/S 746 mmHg 93%
    06:00 +19°C° 0,1 mm 2 m/S 746 mmHg 91%
    07:00 +19°C° 0,1 mm 2 m/S 746 mmHg 89%
    08:00 +20°C° 0,1 mm 3 m/S 746 mmHg 87%
    09:00 +22°C° 0,3 mm 3 m/S 746 mmHg 83%
    10:00 +23°C° 0,3 mm 4 m/S 746 mmHg 78%
    11:00 +25°C° 0,3 mm 4 m/S 746 mmHg 73%
    12:00 +25°C° 0,5 mm 4 m/S 746 mmHg 75%
    13:00 +25°C° 0,5 mm 4 m/S 746 mmHg 76%
    14:00 +25°C° 0,5 mm 4 m/S 746 mmHg 78%
    15:00 +25°C° 0,5 mm 4 m/S 746 mmHg 79%
    16:00 +25°C° 0,5 mm 4 m/S 746 mmHg 81%
    17:00 +25°C° 0,5 mm 4 m/S 746 mmHg 82%
    18:00 +24°C° 0,3 mm 3 m/S 746 mmHg 85%
    19:00 +22°C° 0,3 mm 3 m/S 746 mmHg 88%
    20:00 +21°C° 0,3 mm 2 m/S 746 mmHg 91%
    21:00 +20°C° 0 mm 2 m/S 746 mmHg 93%
    22:00 +20°C° 0 mm 2 m/S 746 mmHg 95%
    23:00 +19°C° 0 mm 2 m/S 746 mmHg 97%

    übermorgen, 20 Juli, Freitag

    Zeit Temperatur Niederschläge Wind Luftdruck Luftfeuchtigkeit
    00:00 +19°C° 0 mm 2 m/S 746 mmHg 97%
    01:00 +18°C° 0 mm 2 m/S 746 mmHg 97%
    02:00 +18°C° 0 mm 2 m/S 746 mmHg 98%
    03:00 +18°C° 0 mm 2 m/S 746 mmHg 98%
    04:00 +18°C° 0 mm 2 m/S 746 mmHg 98%
    05:00 +18°C° 0 mm 2 m/S 746 mmHg 98%
    06:00 +19°C° 0 mm 2 m/S 746 mmHg 94%
    07:00 +20°C° 0 mm 2 m/S 746 mmHg 90%
    08:00 +23°C° 0 mm 2 m/S 746 mmHg 86%
    09:00 +24°C° 0,5 mm 2 m/S 746 mmHg 81%
    10:00 +25°C° 0,5 mm 3 m/S 745 mmHg 76%
    11:00 +27°C° 0,5 mm 3 m/S 745 mmHg 71%
    12:00 +27°C° 0,3 mm 3 m/S 745 mmHg 70%
    13:00 +27°C° 0,3 mm 3 m/S 745 mmHg 68%
    14:00 +28°C° 0,3 mm 4 m/S 744 mmHg 67%
    15:00 +28°C° 0,3 mm 4 m/S 744 mmHg 70%
    16:00 +27°C° 0,3 mm 4 m/S 744 mmHg 72%
    17:00 +27°C° 0,3 mm 3 m/S 744 mmHg 74%
    18:00 +26°C° 0,2 mm 3 m/S 744 mmHg 79%
    19:00 +24°C° 0,2 mm 3 m/S 744 mmHg 84%
    20:00 +23°C° 0,2 mm 2 m/S 744 mmHg 89%
    21:00 +21°C° 0 mm 2 m/S 744 mmHg 91%
    22:00 +20°C° 0 mm 2 m/S 744 mmHg 93%
    23:00 +19°C° 0 mm 2 m/S 744 mmHg 96%

    21 Juli, Samstag

    Zeit Temperatur Niederschläge Wind Luftdruck Luftfeuchtigkeit
    00:00 +19°C° 0 mm 2 m/S 744 mmHg 96%
    01:00 +19°C° 0 mm 2 m/S 745 mmHg 97%
    02:00 +19°C° 0 mm 1 m/S 745 mmHg 97%
    03:00 +19°C° 0 mm 1 m/S 745 mmHg 97%
    04:00 +19°C° 0 mm 1 m/S 745 mmHg 97%
    05:00 +19°C° 0 mm 1 m/S 745 mmHg 98%
    06:00 +19°C° 0 mm 2 m/S 745 mmHg 94%
    07:00 +20°C° 0 mm 2 m/S 745 mmHg 91%
    08:00 +23°C° 0 mm 2 m/S 745 mmHg 87%
    09:00 +24°C° 0,4 mm 2 m/S 745 mmHg 83%
    10:00 +25°C° 0,4 mm 2 m/S 745 mmHg 80%
    11:00 +26°C° 0,4 mm 3 m/S 745 mmHg 76%
    12:00 +26°C° 0,6 mm 3 m/S 745 mmHg 74%
    13:00 +27°C° 0,6 mm 3 m/S 745 mmHg 72%
    14:00 +27°C° 0,6 mm 4 m/S 744 mmHg 69%
    15:00 +27°C° 0,3 mm 4 m/S 744 mmHg 71%
    16:00 +27°C° 0,3 mm 4 m/S 744 mmHg 72%
    17:00 +27°C° 0,3 mm 4 m/S 744 mmHg 73%
    18:00 +26°C° 0,1 mm 3 m/S 744 mmHg 78%
    19:00 +24°C° 0,1 mm 3 m/S 745 mmHg 84%
    20:00 +23°C° 0,1 mm 2 m/S 745 mmHg 89%
    21:00 +21°C° 0 mm 2 m/S 745 mmHg 91%
    22:00 +20°C° 0 mm 2 m/S 745 mmHg 93%
    23:00 +19°C° 0 mm 2 m/S 745 mmHg 94%

    22 Juli, Sonntag

    Zeit Temperatur Niederschläge Wind Luftdruck Luftfeuchtigkeit
    00:00 +18°C° 0 mm 2 m/S 745 mmHg 95%
    01:00 +18°C° 0 mm 2 m/S 745 mmHg 95%
    02:00 +17°C° 0 mm 2 m/S 745 mmHg 95%
    03:00 +17°C° 0 mm 2 m/S 745 mmHg 96%
    04:00 +17°C° 0 mm 2 m/S 745 mmHg 96%
    05:00 +17°C° 0 mm 2 m/S 745 mmHg 96%
    06:00 +18°C° 0 mm 2 m/S 746 mmHg 92%
    07:00 +19°C° 0 mm 3 m/S 746 mmHg 88%
    08:00 +21°C° 0 mm 3 m/S 746 mmHg 84%
    09:00 +22°C° 0 mm 3 m/S 746 mmHg 79%
    10:00 +24°C° 0 mm 3 m/S 746 mmHg 74%
    11:00 +26°C° 0 mm 3 m/S 745 mmHg 68%
    12:00 +26°C° 0,2 mm 4 m/S 745 mmHg 66%
    13:00 +27°C° 0,2 mm 4 m/S 745 mmHg 64%
    14:00 +28°C° 0,2 mm 4 m/S 745 mmHg 62%
    15:00 +28°C° 0,1 mm 4 m/S 745 mmHg 63%
    16:00 +27°C° 0,1 mm 4 m/S 745 mmHg 63%
    17:00 +27°C° 0,1 mm 4 m/S 745 mmHg 64%
    18:00 +26°C° 0 mm 3 m/S 745 mmHg 67%
    19:00 +24°C° 0 mm 3 m/S 745 mmHg 71%
    20:00 +22°C° 0 mm 3 m/S 745 mmHg 75%
    21:00 +21°C° 0 mm 3 m/S 745 mmHg 75%
    22:00 +20°C° 0 mm 3 m/S 746 mmHg 76%
    23:00 +18°C° 0 mm 3 m/S 746 mmHg 76%

    23 Juli, Montag

    Zeit Temperatur Niederschläge Wind Luftdruck Luftfeuchtigkeit
    00:00 +18°C° 0 mm 3 m/S 746 mmHg 78%
    01:00 +17°C° 0 mm 3 m/S 746 mmHg 80%
    02:00 +16°C° 0 mm 2 m/S 746 mmHg 82%
    03:00 +16°C° 0 mm 3 m/S 746 mmHg 83%
    04:00 +16°C° 0 mm 3 m/S 746 mmHg 85%
    05:00 +16°C° 0 mm 3 m/S 747 mmHg 86%
    06:00 +17°C° 0 mm 3 m/S 747 mmHg 82%
    07:00 +19°C° 0 mm 3 m/S 747 mmHg 77%
    08:00 +21°C° 0 mm 3 m/S 747 mmHg 72%
    09:00 +22°C° 0 mm 3 m/S 747 mmHg 67%
    10:00 +25°C° 0 mm 4 m/S 747 mmHg 61%
    11:00 +26°C° 0 mm 4 m/S 747 mmHg 55%
    12:00 +27°C° 0 mm 4 m/S 747 mmHg 54%
    13:00 +27°C° 0 mm 4 m/S 747 mmHg 53%
    14:00 +28°C° 0 mm 4 m/S 747 mmHg 52%
    15:00 +27°C° 0 mm 4 m/S 747 mmHg 54%
    16:00 +27°C° 0 mm 4 m/S 747 mmHg 56%
    17:00 +27°C° 0 mm 4 m/S 747 mmHg 58%
    18:00 +26°C° 0 mm 3 m/S 747 mmHg 64%
    19:00 +24°C° 0 mm 3 m/S 747 mmHg 70%
    20:00 +21°C° 0 mm 3 m/S 747 mmHg 76%
    21:00 +20°C° 0 mm 3 m/S 748 mmHg 75%
    22:00 +19°C° 0 mm 3 m/S 748 mmHg 74%
    23:00 +18°C° 0 mm 3 m/S 748 mmHg 73%
    Mehr zeigen